Weather reports worldwide

Advertisment
Socoa, France (7600): temperature & dewpoint: 16.01.2019 04:00:00 - 22.01.2019 04:00:00 (CET)Socoa, France (7600): wind speed & gusts: 16.01.2019 04:00:00 - 22.01.2019 04:00:00 (CET)Socoa, France (7600): wind direction: 16.01.2019 04:00:00 - 22.01.2019 04:00:00 (CET)Socoa, France (7600): reduced air pressure: 16.01.2019 04:00:00 - 22.01.2019 04:00:00 (CET)Socoa, France (7600): visibility: 16.01.2019 04:00:00 - 22.01.2019 04:00:00 (CET)Socoa, France (7600): precipitation: 16.01.2019 04:00:00 - 22.01.2019 04:00:00 (CET)
Date & Time tt [°C] td [°C] ff [km/h] ff [kn] fx [km/h] fx [kn] dd ppp [hPa] vv [km] rr [mm]
22.01.2019 04:00:00 - - - - - - - - - -
22.01.2019 03:00:00 7,0 3,2 14 7 23 13 SSW 1021,3 - 0,0
22.01.2019 02:00:00 7,7 2,6 11 6 30 16 SW 1022,1 - 0,0
22.01.2019 01:00:00 8,5 2,7 16 9 29 16 NW 1022,8 - 0,0
22.01.2019 00:00:00 8,2 2,4 14 7 32 17 NNW 1023,2 - 0,0
21.01.2019 23:00:00 8,2 2,6 23 12 43 23 NNW 1023,2 - 0,0
21.01.2019 22:00:00 8,5 3,1 34 18 47 25 NNW 1023,9 18 0,0
21.01.2019 21:00:00 9,1 3,3 27 14 37 20 WNW 1024,0 - 0,0
21.01.2019 20:00:00 8,5 2,1 21 12 34 19 WNW 1024,1 - 0,0
21.01.2019 19:00:00 7,9 0,8 26 14 39 21 NW 1024,2 20 0,0
21.01.2019 18:00:00 7,5 3,7 10 5 16 8 NNW 1024,2 - 0,0
21.01.2019 17:00:00 7,8 4,0 8 4 17 9 NNE 1024,0 - 0,0
21.01.2019 16:00:00 8,2 3,8 6 3 14 7 NNE 1023,9 - 0,0
21.01.2019 15:00:00 8,6 3,6 5 3 10 5 NNE 1024,1 - 0,0
21.01.2019 14:00:00 7,4 4,0 5 3 16 8 SE 1024,4 - 0,0
21.01.2019 13:00:00 7,0 3,6 9 5 28 15 SE 1024,8 - 0,0
21.01.2019 12:00:00 6,9 4,2 20 11 26 14 NNE 1025,2 - 0,0
21.01.2019 11:00:00 7,2 5,5 8 5 18 10 ESE 1024,5 - 0,0
21.01.2019 10:00:00 6,7 5,0 16 9 34 19 E 1023,5 12 0,6
21.01.2019 09:00:00 7,2 5,8 20 11 29 16 NE 1022,7 - 0,2
21.01.2019 08:00:00 7,0 5,3 11 6 16 9 SW 1022,0 - 0,0
21.01.2019 07:00:00 7,7 5,3 8 4 39 21 NW 1021,7 20 0,2
21.01.2019 06:00:00 8,1 6,1 21 11 31 17 NW 1021,4 - 0,0
21.01.2019 05:00:00 6,6 5,2 16 9 23 13 WSW 1021,2 - 0,0
21.01.2019 04:00:00 6,6 5,2 9 5 11 6 SSW 1021,1 20 0,0
21.01.2019 03:00:00 6,8 5,4 10 5 15 8 S 1020,7 - 0,0
21.01.2019 02:00:00 7,3 5,8 8 4 13 7 S 1020,8 - 2,0
21.01.2019 01:00:00 7,3 5,6 11 6 13 7 S 1020,6 - 1,4
21.01.2019 00:00:00 7,9 5,7 8 4 48 26 SE 1020,2 - 1,4
20.01.2019 23:00:00 8,5 5,9 6 3 16 9 SSE 1019,7 - 0,0
20.01.2019 22:00:00 8,8 6,1 11 6 35 19 ESE 1019,2 - 0,0
20.01.2019 21:00:00 9,9 7,0 27 15 53 28 NNE 1018,8 - 0,2
20.01.2019 20:00:00 10,6 6,2 23 12 55 30 N 1018,1 - 0,8
20.01.2019 19:00:00 10,7 6,3 22 12 32 17 NNW 1017,3 18 0,0
20.01.2019 18:00:00 10,4 6,5 23 12 54 29 NNW 1016,8 - 0,2
20.01.2019 17:00:00 10,7 5,9 27 15 45 24 NW 1016,2 - 0,0
20.01.2019 16:00:00 12,2 6,5 32 17 39 21 NW 1015,6 - 0,0
20.01.2019 15:00:00 11,6 7,1 29 16 41 22 NW 1015,4 - 0,2
20.01.2019 14:00:00 11,8 6,9 28 15 35 19 NW 1015,3 - 0,0
20.01.2019 13:00:00 11,4 6,9 32 18 49 26 NNW 1015,1 - 0,8
20.01.2019 12:00:00 9,5 6,2 33 18 54 29 NW 1015,2 - 3,2
20.01.2019 11:00:00 10,2 7,1 37 20 54 29 WNW 1014,4 - 0,4
20.01.2019 10:00:00 10,0 6,0 38 20 58 31 WNW 1013,3 16 1,0
20.01.2019 09:00:00 8,4 7,0 17 9 24 13 SW 1012,6 - 0,0
20.01.2019 08:00:00 8,6 6,7 13 7 41 22 SW 1012,4 - 2,0
20.01.2019 07:00:00 8,0 4,8 13 7 16 9 S 1011,5 15 0,0
20.01.2019 06:00:00 8,0 4,6 7 4 21 11 SSW 1011,4 - 0,0
20.01.2019 05:00:00 8,1 4,5 13 7 22 12 S 1011,0 - 0,0
20.01.2019 04:00:00 8,3 4,9 13 7 21 11 S 1011,2 20 0,0
20.01.2019 03:00:00 8,4 5,3 10 5 16 9 SSW 1010,9 - 0,2
20.01.2019 02:00:00 8,9 4,7 3 1 9 5 SW 1010,2 - 0,0
20.01.2019 01:00:00 9,3 4,3 9 5 19 11 SSW 1009,9 18 0,0
20.01.2019 00:00:00 9,6 4,2 14 7 29 16 S 1009,5 - 0,2
19.01.2019 23:00:00 10,3 4,0 9 5 26 14 S 1008,9 - 0,0
19.01.2019 22:00:00 10,6 3,4 8 4 39 21 S 1008,4 16 0,0
19.01.2019 21:00:00 10,9 3,2 20 11 41 22 S 1008,2 - 0,0
19.01.2019 20:00:00 11,1 2,4 14 8 41 22 S 1008,3 - 0,0
19.01.2019 19:00:00 10,8 3,1 14 8 32 18 S 1008,3 15 0,0
19.01.2019 18:00:00 10,7 2,8 9 5 34 18 S 1008,7 - 0,0
19.01.2019 17:00:00 10,9 3,2 14 8 31 17 SSE 1009,1 - 0,0
19.01.2019 16:00:00 11,5 3,5 15 8 37 20 SSE 1009,7 20 0,0
19.01.2019 15:00:00 11,7 3,5 18 10 37 20 S 1010,5 - 0,0
19.01.2019 14:00:00 12,5 3,4 18 10 41 22 SSE 1011,6 - 0,0
19.01.2019 13:00:00 13,1 4,3 16 9 28 15 S 1013,0 - 0,0
19.01.2019 12:00:00 11,3 4,0 21 11 33 18 S 1014,1 - 0,0
19.01.2019 11:00:00 10,9 4,6 19 11 32 17 S 1014,6 - 0,0
19.01.2019 10:00:00 8,8 4,2 19 11 31 17 S 1014,7 18 0,0
19.01.2019 09:00:00 8,5 4,1 16 9 32 17 SSW 1014,7 - 0,0
19.01.2019 08:00:00 8,2 4,4 22 12 36 19 SSW 1014,6 - 0,0
19.01.2019 07:00:00 8,0 5,3 9 5 24 13 SW 1014,9 18 0,2
19.01.2019 06:00:00 8,2 4,8 18 10 35 19 SSW 1014,5 - 0,0
19.01.2019 05:00:00 8,0 5,6 21 12 43 23 SSW 1015,0 - 0,4
19.01.2019 04:00:00 7,4 5,5 23 12 41 22 SW 1015,5 20 0,0
19.01.2019 03:00:00 6,4 4,6 9 5 17 9 S 1015,6 - 0,4
19.01.2019 02:00:00 7,2 5,0 13 7 32 18 SW 1016,4 - 0,4
19.01.2019 01:00:00 7,3 3,7 14 8 22 12 SW 1016,5 - 0,2
19.01.2019 00:00:00 6,8 3,6 10 6 13 7 S 1016,7 - 0,0
18.01.2019 23:00:00 7,6 3,6 11 6 22 12 S 1016,5 - 0,0
18.01.2019 22:00:00 7,9 3,9 13 7 24 13 S 1016,3 16 0,0
18.01.2019 21:00:00 7,3 4,1 16 8 23 13 S 1016,5 - 0,0
18.01.2019 20:00:00 7,4 4,5 10 6 13 7 S 1017,0 - 0,0
18.01.2019 19:00:00 8,0 4,6 9 5 11 6 S 1017,3 15 0,0
18.01.2019 18:00:00 8,7 4,7 7 4 13 7 SSE 1017,6 - 0,0
18.01.2019 17:00:00 9,3 5,1 7 4 14 8 SW 1018,0 - 0,0
18.01.2019 16:00:00 9,1 4,1 13 7 18 10 WSW 1018,3 15 0,0
18.01.2019 15:00:00 10,0 6,0 9 5 18 10 WNW 1018,5 - 0,0
18.01.2019 14:00:00 9,3 4,9 9 5 13 7 SW 1019,1 - 0,0
18.01.2019 13:00:00 8,3 5,4 9 5 21 11 S 1019,8 14 0,0
18.01.2019 12:00:00 8,0 4,4 16 8 21 11 SW 1020,4 - 0,0
18.01.2019 11:00:00 7,6 4,4 13 7 21 11 SSW 1020,5 - 0,0
18.01.2019 10:00:00 6,4 4,2 13 7 16 9 SSW 1020,3 16 0,0
18.01.2019 09:00:00 6,1 3,8 12 7 17 9 SSW 1020,0 - 0,0
18.01.2019 08:00:00 6,3 3,3 15 8 26 14 SSW 1020,0 - 0,0
18.01.2019 07:00:00 6,1 3,8 19 11 26 14 SSW 1020,1 - 0,0
18.01.2019 06:00:00 6,0 3,8 16 9 23 13 SSW 1020,4 - 0,2
18.01.2019 05:00:00 6,1 4,4 13 7 22 12 S 1020,9 - 0,2
18.01.2019 04:00:00 6,9 5,0 7 4 18 10 S 1021,5 12 0,2
18.01.2019 03:00:00 6,7 5,0 18 10 29 16 SW 1021,9 - 0,2
18.01.2019 02:00:00 6,6 4,8 15 8 31 17 SSW 1022,0 - 2,2
18.01.2019 01:00:00 7,0 4,8 19 10 30 16 SSW 1022,2 10 0,4
18.01.2019 00:00:00 6,8 4,8 21 12 29 16 SSW 1022,5 - 0,0
17.01.2019 23:00:00 5,8 4,0 17 9 24 13 SSW 1022,3 - 0,0
17.01.2019 22:00:00 6,5 4,3 18 10 27 15 SSW 1022,3 18 0,0
17.01.2019 21:00:00 8,3 4,1 20 11 49 26 W 1022,0 - 1,2
17.01.2019 20:00:00 7,7 5,8 18 10 26 14 SSW 1021,8 - 0,2
17.01.2019 19:00:00 8,1 6,4 19 10 40 22 SW 1021,4 - 0,4
17.01.2019 18:00:00 7,6 5,9 14 8 23 12 SW 1020,8 - 0,0
17.01.2019 17:00:00 8,3 5,9 13 7 38 21 WSW 1020,7 - 1,4
17.01.2019 16:00:00 9,8 6,5 18 10 41 22 SW 1020,4 - 0,4
17.01.2019 15:00:00 10,0 6,3 29 16 48 26 WSW 1020,5 - 0,2
17.01.2019 14:00:00 10,8 6,7 28 15 42 23 WSW 1020,5 - 0,0
17.01.2019 13:00:00 9,3 5,7 35 19 62 34 W 1020,9 14 1,4
17.01.2019 12:00:00 10,8 5,5 16 9 34 19 W 1021,3 - 0,4
17.01.2019 11:00:00 10,3 5,9 14 8 41 22 WSW 1021,2 - 0,0
17.01.2019 10:00:00 10,8 5,1 29 16 59 32 WNW 1020,4 20 0,0
17.01.2019 09:00:00 10,5 5,0 36 19 61 33 WNW 1019,8 - 0,0
17.01.2019 08:00:00 11,1 5,2 37 20 61 33 NW 1019,0 - 0,0
17.01.2019 07:00:00 10,4 6,7 23 12 41 22 WNW 1018,3 15 0,0
17.01.2019 06:00:00 10,4 7,1 31 17 38 21 NW 1017,9 - 0,9
17.01.2019 05:00:00 9,2 8,1 21 11 36 19 SW 1017,8 - 4,6
17.01.2019 04:00:00 9,2 7,1 21 11 33 18 SW 1017,9 6 1,2
17.01.2019 03:00:00 10,5 6,1 21 11 34 18 SW 1017,5 - 0,0
17.01.2019 02:00:00 10,8 5,3 16 9 29 16 SW 1017,1 - 0,0
17.01.2019 01:00:00 10,5 5,5 15 8 28 15 SSW 1017,3 18 0,0
17.01.2019 00:00:00 10,9 5,2 17 9 24 13 SSW 1017,4 - 0,0
16.01.2019 23:00:00 10,9 5,2 15 8 26 14 SW 1017,7 - 0,0
16.01.2019 22:00:00 10,0 4,8 17 9 24 13 SW 1017,4 18 0,0
16.01.2019 21:00:00 8,9 4,9 12 6 16 9 S 1017,3 - 0,0
16.01.2019 20:00:00 8,7 5,1 9 5 18 10 SSW 1017,3 - 0,0
16.01.2019 19:00:00 8,6 5,2 14 7 18 10 SSW 1017,1 - 0,0
16.01.2019 18:00:00 10,7 5,7 11 6 19 10 SSW 1016,9 - 0,0
16.01.2019 17:00:00 12,8 7,2 12 6 17 9 W 1016,6 - 0,0
16.01.2019 16:00:00 13,1 7,7 7 4 20 11 W 1016,4 20 0,0
16.01.2019 15:00:00 13,5 8,3 16 9 26 14 W 1016,5 - 0,0
16.01.2019 14:00:00 13,6 8,2 19 10 34 19 W 1016,8 - 0,0
16.01.2019 13:00:00 13,0 8,5 28 15 41 22 W 1017,3 22 0,0
16.01.2019 12:00:00 12,7 6,5 16 9 22 12 W 1017,7 - 0,0
16.01.2019 11:00:00 9,5 5,1 13 7 21 11 WSW 1017,5 - 0,0
16.01.2019 10:00:00 8,2 5,8 15 8 22 12 WSW 1017,0 20 0,0
16.01.2019 09:00:00 4,6 3,4 8 4 14 8 WNW 1016,5 - 0,0
16.01.2019 08:00:00 4,4 3,4 4 2 18 10 NW 1016,2 - 0,0
16.01.2019 07:00:00 3,1 2,2 4 2 16 8 SW 1015,9 - 0,0
16.01.2019 06:00:00 2,8 2,1 7 4 17 9 WSW 1015,9 - 0,2
16.01.2019 05:00:00 2,4 1,5 4 2 14 7 W 1016,4 - 0,0
16.01.2019 04:00:00 2,2 1,2 4 2 14 8 SSE 1016,9 20 0,0

tt = temperature
td = dewpoint
ff = wind speed
fx = gusts
dd = wind direction
ppp = reduced air pressure
vv = visibility
rr = precipitation

Next stations